Location: Unspecified
(0.0000°N, 0.0000°E)
Time: 12:06:24
(UTC+02:00)

Centaur D-1AR AC-41 - Visible Passes

Search period start: 01 September 2015 00:00
Search period end: 11 September 2015 00:00
Orbit: 637 x 36205 km, 21.8° (Epoch: 31 August)

Date Brightness Start Highest point End Pass type
(mag) Time Alt. Az. Time Alt. Az. Time Alt. Az.
01 Sep 7.0 04:07:27 52° S 04:12:47 55° SSE 14:05:44 10° ENE visible
02 Sep 7.9 01:43:11 17° ESE 01:43:11 17° ESE 11:19:39 10° ENE visible
03 Sep 4.1 20:09:22 10° WNW 20:22:15 62° SSW 20:26:14 10° SE visible
05 Sep 7.2 05:18:18 42° SW 05:43:23 75° SSE 15:22:50 10° ENE visible
06 Sep 7.4 02:54:03 41° SE 02:54:03 41° SE 12:44:23 10° ENE visible
07 Sep 4.7 21:32:47 10° WSW 21:36:27 19° SSW 21:37:32 17° S visible
09 Sep 6.5 06:29:11 20° WSW 16:25:09 59° N 16:38:08 10° E visible
10 Sep 7.1 04:04:57 57° S 04:11:53 63° SSE 14:03:38 10° ENE visible
